Regional Weather Roundup
Issued by NWS

Home | Current Version | Previous Version | Graphics & Text | Print | Product List | Glossary Off
Versions: 1 2 3 4 5 6 7 8 9 10 11 12 13 14 15 16 17 18 19 20 21 22 23 24 25 26 27 28 29 30 31 32 33 34 35 36 37 38 39 40 41 42 43 44 45 46 47 48 49 50

000
ASUS43 KDMX 242201
RWRIA

WEATHER ROUNDUP FOR IOWA
NATIONAL WEATHER SERVICE DES MOINES IA
500 PM CDT MON APR 24 2017

NOTE: "FAIR" INDICATES FEW OR NO CLOUDS BELOW 12,000 FEET WITH NO
SIGNIFICANT WEATHER AND/OR OBSTRUCTIONS TO VISIBILITY.

* - THESE STATIONS ARE NOT NWS STATIONS...THUS NOT UNDER NWS
QUALITY CONTROL.  THEY ALSO DO NOT REPORT WEATHER SUCH
AS PRECIPITATION OR FOG.

IAZ001>003-012>014-020>022-031>034-043>046-242300-
   NORTHWEST IOWA

CITY           SKY/WX    TMP DP  RH WIND       PRES   REMARKS
CARROLL *      CLOUDY    73  32  21 S30       29.55F
CHEROKEE *     CLOUDY    67  39  35 S18G24    29.54F
DENISON *      MOSUNNY   73  37  27 SW22G36   29.55F
LE MARS *      CLOUDY    70  41  35 S8        29.51F
ORANGE CITY *  CLOUDY    66  41  39 S16       29.52F
SHELDON *      PTSUNNY   68  37  32 S21G29    29.51F
SIOUX CITY     CLOUDY    72  40  31 SW21G29   29.50F
SPENCER        CLOUDY    69  34  27 S24G32    29.54F
STORM LAKE *   PTSUNNY   70  34  26 S26G37    29.54F
$$

IAZ055>058-069>071-079>083-090>094-242300-
   SOUTHWEST IOWA

CITY           SKY/WX    TMP DP  RH WIND       PRES   REMARKS
ATLANTIC *     CLOUDY    73  37  27 S26G35    29.55F
AUDUBON *      CLOUDY    73  27  17 S17G25    29.58F
CLARINDA *     CLOUDY    73  36  25 S20G26    29.58F
COUNCIL BLFS * CLOUDY    72  41  33 S20G33    29.54F
CRESTON *      CLOUDY    72  30  21 S22G32    29.60S
HARLAN  *      MOSUNNY   73  36  25 S24G44    29.58F
LAMONI         MOSUNNY   74  28  18 S22G32    29.60F
RED OAK *      CLOUDY    73  37  27 SW25G35   29.56F
SHENANDOAH *   CLOUDY    75  39  27 S24       29.56F
$$

IAZ047>049-059>061-072>074-084-242300-
   CENTRAL IOWA

CITY           SKY/WX    TMP DP  RH WIND       PRES   REMARKS
AMES           CLOUDY    71  33  24 S17G30    29.60F
ANKENY *       CLOUDY    73  28  19 S17G25    29.61F
BOONE *        CLOUDY    73  27  17 S23G31    29.58F
CHARITON *     CLOUDY    73  30  20 S24       29.61F
DES MOINES     CLOUDY    74  29  19 S22G33    29.60F
GRINNELL*      SUNNY     74  24  15 S22G36    29.66S
KNOXVILLE *    CLOUDY    73  23  15 S16G26    29.61S
MARSHALLTOWN   SUNNY     72  24  16 S28G36    29.62F
NEWTON *       SUNNY     73  27  17 S23G30    29.62S
PELLA *        SUNNY     75  21  13 SE16G28   29.64F
PERRY *          N/A     74  17  11 S25G38    29.57F
$$

IAZ004>006-015-016-023>025-035-036-242300-
   NORTH CENTRAL IOWA

CITY           SKY/WX    TMP DP  RH WIND       PRES   REMARKS
ALGONA *       CLOUDY    68  30  24 S21G26    29.58S
CLARION *      CLOUDY    70  28  21 S16G26    29.60F
ESTHERVILLE    CLOUDY    66  33  29 S18       29.56F
FORT DODGE *   CLOUDY    72  30  21 S20G31    29.59F
MASON CITY     CLOUDY    68  28  22 S16G25    29.63S
FOREST CITY *  CLOUDY    66  28  24 S15G29    29.59F
WEBSTER CITY * CLOUDY    73  28  19 S25G32    29.56F
IOWA FALLS *     N/A     73  27  18 S18G35    29.62F
$$

IAZ007>011-017>019-026>030-037>042-050>054-066-242300-
   NORTHEAST IOWA

CITY           SKY/WX    TMP DP  RH WIND       PRES   REMARKS
CEDAR RAPIDS   SUNNY     75  28  17 S18G32    29.67F
CHARLES CITY * PTSUNNY   70  23  17 S21G30    29.63F
CLINTON *      MOSUNNY   75  27  17 S21G28    29.75F
DECORAH *      MOSUNNY   70  25  18 S15G33    29.66F
DUBUQUE        MOSUNNY   72  27  18 S24G31    29.72F
MONTICELLO *   MOSUNNY   75  23  14 SE20G28   29.69F
OELWEIN *      PTSUNNY   73  25  16 S26G35    29.67F
WATERLOO       MOSUNNY   72  24  16 S18G29    29.64F
$$

IAZ064-065-067-068-078-242300-
   EAST CENTRAL IOWA

CITY           SKY/WX    TMP DP  RH WIND       PRES   REMARKS
DAVENPORT      SUNNY     77  22  13 SE16G26   29.74F
IOWA CITY      SUNNY     76  31  19 SE17G29   29.69F
MUSCATINE *    SUNNY     77  27  15 SE20G28   29.69F
QUAD CITIES    SUNNY     76  26  15 S13G22    29.73F
$$

IAZ062-063-075>077-085>089-095>099-242300-
   SOUTHEAST IOWA

CITY           SKY/WX    TMP DP  RH WIND       PRES   REMARKS
BURLINGTON     CLOUDY    75  31  19 S13       29.72F
FAIRFIELD *    SUNNY     75  27  16 SE21      29.66F
FORT MADISON * SUNNY     79  30  17 S13G22    29.72F
KEOKUK *       SUNNY     75  25  15 S15G24    29.70F
OSKALOOSA *      N/A     76  24  14 S25G32    29.65F
CENTERVILLE *    N/A     73  27  17 SE20G25   29.64F
OTTUMWA        SUNNY     76  25  15 S26       29.65F
WASHINGTON *   SUNNY     77  23  13 SE26G33   29.68F
$$

ABBREVIATIONS USED IN REMARKS
   TC - TEMPERATURES IN CELSIUS
  WCI - WIND CHILL INDEX
   HX - HEAT INDEX
  VSB - VISIBILITY
$$





USA.gov is the U.S. government's official web portal to all federal, state and local government web resources and services.